Location: Perryvale
(54.4667°N, 113.3833°W)
Time: 23:12:10
(UTC+00:00)

Vanguard 1 - Pass Details

Date: 21 May 2024
Orbit: 652 x 3825 km, 34.2° (Epoch: 13 June)

Event Time Altitude Azimuth Distance (km) Brightness Sun altitude
Rises 07:39:18 0° 257° (WSW) 5,740 13.8 -15.2°
Reaches altitude 10° 07:42:59 10° 248° (WSW) 5,127 13.5 -15.2°
Maximum altitude 07:56:52 36° 191° (S) 4,490 12.8 -15.0°
Drops below altitude 10° 08:15:50 10° 136° (SE) 6,924 14.0 -14.6°
Sets 08:21:59 0° 129° (SE) 7,918 14.4 -14.4°
